STARLINK-3109, 49143

Orbit data source: Space-Track

STARLINK-3109, 49143 is a payload satellite owned by SpaceX/Seattle (US) in LEO that was launched on Tue, 14 Sep 2021 UTC via an FALCON 9 launch vehicle from the Air Force Western Test Range (AFWTR). Payload-class satellites include a variety of spacecraft equipped with specific instruments for various scientific and technological missions. These include communications satellites like Starlink; space stations such as the ISS; scientific satellites like the Hubble; Earth observation satellites from companies like Planet Labs, Umbra, and HawkEye 360; GPS; miniature CubeSats for education and research; and military/defense satellites.

Loading next visibility...
Identifier
49143, 2021-082P
Orbit
LEO
Country
Flag of USUS
Related business
Manufacturer
SpaceX/Seattle
Mission
Operational Commercial Communications
Bus & Motor
STARLINK, Unknown motor
Mass
297 kg wet, ~275 kg dry
Launch date (UTC)
2021-09-14 (5 years ago)
Launch vehicle
FALCON 9
Launch site
Air Force Western Test Range (AFWTR)
Object type
Payload
Rocket body
Debris
Shape & HBR
Box + 1 Pan, 10.1 m
Radar Cross Section
13.562 m², Large (>1 m²)

Expand to show TLE details & history
Last TLE update: 15 hours ago

TLE from 15 hours ago
0 STARLINK-3109
1 49143U 21082P   26125.45311682  .00001050  00000-0  97764-4 0  9993
2 49143  69.9988 132.3066 0003739 270.1622  89.9108 14.97521112256062
Epoch: 2026-05-05T10:52Z
TLE epoch observation values (Epoch: 2026-05-05T10:52:29.293Z)
Latitude
-0.00003°
Longitude
105.85679°
Altitude
576.978 km
Speed
7.573 km/s
True Right ascension
08h 49m 13s
True Declination
0° 00' 00"
Sunlit
Object was in daylight at epoch
Visualization orbit readout
Latitude
Unknown
Longitude
Unknown
Altitude
Unknown
Speed
Unknown
Apparent Right ascension
Unknown
Apparent Declination
Unknown
Sunlit
N/A
Visualization observer readout
Local Sidereal Time
09:53:08
Azimuth
Unknown
Elevation
Unknown
Doppler factor
Unknown
Orbital elements
Apogee altitude
575.106 km
Perigee altitude
569.909 km
Semi-major axis
6,950.645 km
Eccentricity
0.00037
Inclination
69.9988°
RAAN
132.3066°
Arg. of periapsis
270.1622°
True anomaly
89.95365°
Mean anomaly
89.9108°
Eccentric anomaly
89.93222°
Mean motion
3.74546 °/min
Orbital period
96.12 mins
BSTAR
0.000097764
Loading maneuver chart data...
Computing Atmospheric mass density...
Loading historical data...
Loading historical data...
Loading historical data...
Loading historical data...
Loading historical data...
Loading historical data...
Loading historical data...

Documentation

Showing up to 5 results
|